Flag for Canada Weather past 2 weeks in Halton Hills, Ontario, Canada

Now
36 °F

Passing clouds.


Feels Like: 25 °F
Forecast: 20 / 39 °F
Wind: 18 mph from Northwest

Location: Toronto Pearson International Airport

Current Time: Mar 30, 2015 at 8:24:24 PM

Latest Report: Mar 30, 2015 at 8:00 PM


Visibility: 15 mi

Pressure: 29.87 "Hg

Humidity: 56%

Dew point: 21 °F

Location of Halton HillsLocation

Historic Weather in Halton Hills — Graph

°F

Halton Hills temperature yesterday

Maximum temperature yesterday: 43 °F (at 3:00 PM)
Minimum temperature yesterday: 16 °F (at 3:00 AM)
Average temperature yesterday: 30 °F

Past Weeks' High & Low Weather Summary

 TemperatureHumidityPressure
High54 °F (Mar 16, 4:00 PM)100% (Mar 25, 6:00 PM)30.43 "Hg (Mar 25, 6:00 PM)
Low12 °F (Mar 23, 7:00 AM)26% (Mar 28, 4:00 PM)29.57 "Hg (Mar 30, 4:00 AM)
Average31 °F60%30.08 "Hg
* Reported Mar 15 7:00 PM — Mar 30 7:00 PM, Halton Hills, Weather by CustomWeather, © 2015

Note: Actual official high and low records may vary slightly from our data, if they occured in-between our weather recording intervals... More about our weather records

Advertising

Halton Hills weather history for previous 24 hours

 ConditionsComfort  
Time TempWeatherWind HumidityBarometerVisibility
7:00 PM
Mon, Mar 30
37 °FPassing clouds.25 mph56%29.86 "Hg15 mi
6:00 PM41 °FScattered clouds.28 mph49%29.82 "Hg15 mi
5:00 PM43 °FPassing clouds.28 mph49%29.81 "Hg15 mi
4:00 PM41 °FScattered showers. Scattered clouds.24 mph76%29.79 "Hg15 mi
3:55 PM45 °FSnow flurries. Partly sunny.29 mph53%29.78 "Hg15 mi
3:00 PM45 °FPartly sunny.25 mph57%29.78 "Hg15 mi
2:00 PM43 °FScattered showers. Mostly cloudy.22 mph66%29.79 "Hg15 mi
1:00 PM45 °FPartly sunny.24 mph46%29.77 "Hg15 mi
12:00 PM43 °FPartly sunny.30 mph53%29.76 "Hg15 mi
11:00 AM41 °FBroken clouds.21 mph61%29.75 "Hg15 mi
10:00 AM41 °FPartly sunny.30 mph57%29.72 "Hg15 mi
9:00 AM39 °FPartly sunny.31 mph65%29.69 "Hg15 mi
8:00 AM37 °FMostly cloudy.21 mph70%29.67 "Hg15 mi
7:00 AM37 °FOvercast.20 mph70%29.64 "Hg15 mi
6:00 AM37 °FOvercast.18 mph75%29.61 "Hg15 mi
5:00 AM39 °FOvercast.21 mph81%29.57 "Hg10 mi
4:00 AM37 °FLight rain. Mostly cloudy.18 mph87%29.57 "Hg10 mi
3:00 AM37 °FLight rain. Mostly cloudy.21 mph87%29.60 "Hg10 mi
2:00 AM36 °FLight rain. Mostly cloudy.17 mph87%29.65 "Hg10 mi
1:00 AM37 °FLight rain. Overcast.16 mph65%29.70 "Hg15 mi
12:52 AM37 °FLight rain. Overcast.13 mph65%29.71 "Hg15 mi
12:00 AM36 °FOvercast.13 mph75%29.76 "Hg15 mi
11:00 PM
Sun, Mar 29
36 °FMostly cloudy.15 mph81%29.81 "Hg15 mi
10:00 PM34 °FLight snow. Mostly cloudy.17 mph87%29.87 "Hg6 mi
9:00 PM39 °FOvercast.22 mph45%29.88 "Hg15 mi
8:00 PM37 °FOvercast.9 mph45%29.88 "Hg15 mi
Weather by CustomWeather, © 2015

See weather overviewHow to use our weather pages